LEGION 2

Last updated on Thu Jul 03 2025 00:02:31 GMT+0000 (Coordinated Universal Time)

1 59626U 24081B 25183.56714756 .00003793 00000+0 19591-3 0 9992 2 59626 97.5360 259.4065 0002735 48.1002 312.0464 15.16903136 64547
UTC large
Height (km)
Speed (km/s)
/
Latitude / Longitude
Inclination (degrees)
Orbital Period (minutes)
Azimuth
Elevation
Range (km)
Doppler Factor

Next 0 passes for location: London (51.5072 / 0.1276)

Sorry there are no passes over London.